John Marshall Park

United States     34˚12′36″N   117˚18′10″W
temp.,
°C
wind,
m/s
gust,
m/s
humid.,
%
clouds,
%
prec.,
mm/h
press.,
hPa
HPBL,
m
2 december, wed
wed201:00+10˚nne44170 0.0 101957
04:00+9˚nne44180 0.0 101967
07:00+9˚nne44210 0.0 101979
10:00+16˚n45140 0.0 1022548
13:00+17˚n56120 0.0 1020802
16:00+12˚nne58150 0.0 1021530
19:00+7˚nne67170 0.0 1023274
22:00+5˚n67200 0.0 1026239
3 december, thu
thu301:00+5˚n67200 0.0 1026234
04:00+4˚n67240 0.0 1027251
07:00+3˚n66240 0.0 1027228
10:00+11˚n56130 0.0 1028636
13:00+14˚n5690 0.0 1025829
16:00+10˚nne46120 0.0 1024383
19:00+5˚nne44150 0.0 102574
22:00+5˚nne44140 0.0 102660
4 december, fri
fri401:00+5˚nne44140 0.0 102552
04:00+5˚nne44140 0.0 102451
07:00+5˚nne44120 0.0 102555
10:00+14˚n3480 0.0 1024303
13:00+17˚nnw3370 0.0 1022564
16:00+12˚n22120 0.0 102173
19:00+8˚nne33120 0.0 102226
22:00+7˚ne2390 0.0 102324
5 december, sat
sat501:00+7˚ne23849 0.0 102223
04:00+7˚ne23874 0.0 102224
07:00+7˚ne22882 0.0 102323
10:00+16˚nw11683 0.0 1024407
13:00+18˚sw2267 0.0 1022897
16:00+13˚nw11104 0.0 102241
19:00+9˚nne221233 0.0 102324
22:00+9˚nne221067 0.0 102323
6 december, sun
sun601:00+8˚nne2310100 0.0 102226
04:00+7˚nne331165 0.0 102131
07:00+8˚ene22110 0.0 102123
10:00+16˚ssw2270 0.0 1021494
13:00+17˚ssw3380 0.0 1017561
16:00+14˚s22117 0.0 101699
19:00+8˚ese23170 0.0 101625
22:00+7˚nne33280 0.0 101650